Sheridan, WY

2:27 AM MDT on May 22, 2018 (GMT -0600)
Sheridan County

Weather History for KSHR - July, 2013

Change the Weather History Date:

Saturday, July 13, 2013

  Actual Average Record
Temperature  
Mean Temperature 74 °F 70 °F  
Max Temperature 95 °F 87 °F 107 °F (2005)
Min Temperature 53 °F 53 °F 40 °F (1943)
Degree Days  
Heating Degree Days 0 1  
Month to date heating degree days 0 17  
Since 1 June heating degree days 120 166  
Since 1 July heating degree days 0 17  
Cooling Degree Days 9 6  
Month to date cooling degree days 100 63  
Year to date cooling degree days 156 113  
Since 1 June cooling degree days 148 109  
Growing Degree Days 24 (Base 50)    
Moisture  
Dew Point 49 °F    
Average Humidity 48    
Maximum Humidity 83    
Minimum Humidity 12    
Precipitation  
Precipitation 0.00 in 0.04 in 1.15 in (1948)
Month to date precipitation 0.37 0.52  
Year to date precipitation 9.88 8.67  
Sea Level Pressure  
Sea Level Pressure 29.91 in    
Wind  
Wind Speed 8 mph (NNW)    
Max Wind Speed 31 mph    
Max Gust Speed 39 mph    
Visibility 10 miles    
Events      
T = Trace of Precipitation, MM = Missing Value Source: NWS Daily Summary

Daily Weather History Graph

Daily Weather History Graph

Search for Another Location

Airport or City:

Astronomy

Jul. 13, 2013 Rise Set
Actual Time 5:34 AM MDT 8:52 PM MDT
Civil Twilight 4:58 AM MDT 9:27 PM MDT
Nautical Twilight 4:12 AM MDT 10:14 PM MDT
Astronomical Twilight 3:14 AM MDT 11:11 PM MDT
Moon 11:09 AM MDT (7/13) 11:17 PM MDT (7/13)
Length of Visible Light 16h 28m
Length of Day
15h 17m
Waxing Crescent, 26% of the Moon is Illuminated
Jul 13
Waxing Crescent
Jul 15
First Quarter
Jul 22
Full
Jul 29
Last Quarter
Aug 6
New

Hourly Weather History & Observations

Time (MDT) Temp. Dew Point Humidity Pressure Visibility Wind Dir Wind Speed Gust Speed Precip Events Conditions
12:53 AM 60.1 °F 52.0 °F 75% 29.84 in 10.0 mi South 4.6 mph - N/A   Clear
1:53 AM 57.9 °F 50.0 °F 75% 29.83 in 10.0 mi SSW 4.6 mph - N/A   Clear
2:53 AM 54.0 °F 48.9 °F 83% 29.83 in 10.0 mi Calm Calm - N/A   Clear
3:53 AM 55.0 °F 48.9 °F 80% 29.84 in 10.0 mi Calm Calm - N/A   Clear
4:53 AM 55.0 °F 48.9 °F 80% 29.86 in 10.0 mi South 3.5 mph - N/A   Clear
5:53 AM 55.0 °F 48.0 °F 77% 29.87 in 10.0 mi Calm Calm - N/A   Clear
6:53 AM 60.1 °F 51.1 °F 72% 29.86 in 10.0 mi NW 4.6 mph - N/A   Clear
7:53 AM 66.9 °F 51.1 °F 57% 29.88 in 10.0 mi Calm Calm - N/A   Clear
8:53 AM 72.0 °F 51.1 °F 48% 29.88 in 10.0 mi Calm Calm - N/A   Clear
9:53 AM 78.1 °F 54.0 °F 43% 29.87 in 10.0 mi NE 6.9 mph - N/A   Clear
10:53 AM 82.9 °F 51.1 °F 33% 29.86 in 10.0 mi NNE 4.6 mph - N/A   Clear
11:53 AM 88.0 °F 48.0 °F 25% 29.85 in 10.0 mi Variable 5.8 mph - N/A   Clear
12:53 PM 93.0 °F 37.9 °F 15% 29.85 in 10.0 mi North 9.2 mph - N/A   Clear
1:53 PM 93.9 °F 33.1 °F 12% 29.84 in 10.0 mi East 5.8 mph - N/A   Clear
2:53 PM 93.0 °F 33.1 °F 12% 29.85 in 10.0 mi NNE 10.4 mph - N/A   Clear
3:53 PM 90.0 °F 37.9 °F 16% 29.87 in 10.0 mi North 6.9 mph - N/A   Clear
4:53 PM 84.9 °F 45.0 °F 25% 29.89 in 10.0 mi NW 17.3 mph 26.5 mph N/A   Clear
5:53 PM 82.0 °F 52.0 °F 35% 29.91 in 10.0 mi NW 23.0 mph 29.9 mph N/A   Clear
6:53 PM 77.0 °F 55.0 °F 47% 29.97 in 10.0 mi NNW 15.0 mph - N/A   Clear
7:53 PM 73.9 °F 54.0 °F 50% 30.01 in 10.0 mi WNW 15.0 mph - N/A   Clear
8:53 PM 73.0 °F 55.0 °F 53% 30.03 in 10.0 mi WNW 21.9 mph 28.8 mph N/A   Clear
9:53 PM 70.0 °F 54.0 °F 57% 30.09 in 10.0 mi NW 12.7 mph - N/A   Mostly Cloudy
10:53 PM 68.0 °F 53.1 °F 59% 30.11 in 10.0 mi NW 5.8 mph - N/A   Overcast
11:53 PM 68.0 °F 52.0 °F 56% 30.12 in 10.0 mi NNW 6.9 mph - N/A   Overcast